Location: ????????
(55.3939°N, 37.4780°E)
Time: 09:42:42
(UTC+00:00)

SL-08 R/B - Pass Details

Date: 14 April 2026
Orbit: 944 x 1006 km, 83.0° (Epoch: 19 May)

Event Time Altitude Azimuth Distance (km) Brightness Sun altitude
Exits shadow 21:29:43 57° 158° (SSE) 1,116 4.4 -24.9°
Maximum altitude 21:30:55 73° 97° (E) 1,001 4.4 -24.9°
Drops below altitude 10° 21:37:07 10° 14° (NNE) 2,721 7.8 -24.9°
Sets 21:39:39 0° 13° (NNE) 3,681 8.8 -24.9°
